World > North America > United States > Illinois

Bourbonnais, Illinois Regional Weather

Lat: 41.16N, Lon: 87.88W
Wx Zone: ILZ023
Feedback

Bourbonnais, IL Regional Weather

Expires:201909172300;;943656
ASUS43 KLOT 172209
RWRIL 

ILLINOIS REGIONAL WEATHER ROUNDUP
NATIONAL WEATHER SERVICE CHICAGO/ROMEOVILLE IL
500 PM CDT TUE SEP 17 2019

NOTE: "FAIR" INDICATES FEW OR NO CLOUDS BELOW 12,000 FEET WITH NO
SIGNIFICANT WEATHER AND/OR OBSTRUCTIONS TO VISIBILITY.

* THESE STATIONS ARE NOT UNDER NWS QUALITY CONTROL. THEY ALSO MAY NOT
  REPORT WEATHER SUCH AS PRECIPITATION OR FOG.


ILZ005-006-012>014-019>023-172300-
NORTHEAST ILLINOIS
  
CITY           SKY/WX    TMP DP  RH WIND       PRES   REMARKS
CHICAGO-OHARE  PTSUNNY   76  65  68 E9        30.11S                  
CHICAGO-MIDWAY PTSUNNY   77  65  66 E12       30.11S                  
AURORA         FAIR      78  65  63 SE9       30.10F HX  80           
LANSING*       FAIR      76  65  67 NE6       30.12S                  
JOLIET*        FAIR      80  67  64 SE7       30.10F HX  82           
WAUKEGAN       FAIR      70  64  81 E8        30.13S                  
DUPAGE AIRPORT FAIR      82  63  52 E8        30.10S HX  83           
KANKAKEE*      FAIR      78  64  61 E8        30.11F HX  80           
WHEELING       FAIR      74  65  73 E7        30.13F                  
MORRIS*        FAIR      79  68  69 E7        30.09S HX  81           
ROMEOVILLE*    FAIR      78  65  65 SE5       30.10F HX  80           
NORTHERLY ISL    N/A     71  65  81 N6          N/A                   
$$


SKY/WX - Weather  TMP - Temperature  DP - Dew Point  RH - Relative Humidity
WIND - Wind Direction/Speed PRES - Barometric Pressure VSB - Visibility
WCI - Wind Chill Index E13G22 Wind - East Wind 13 mph/Gusts of 22 mph